Regional Weather Roundup
Issued by NWS

Home | Current Version | Previous Version | Graphics & Text | Print | Product List | Glossary On
Versions: 1 2 3 4 5 6 7 8 9 10 11 12 13 14 15 16 17 18 19 20 21 22 23 24 25 26 27 28 29 30 31 32 33 34 35 36 37 38 39 40 41 42 43 44 45 46 47 48 49 50
250
ASUS44 KJAN 012003
RWRMS

MISSISSIPPI HOURLY WEATHER ROUNDUP
NATIONAL WEATHER SERVICE JACKSON MS
300 PM CDT WED OCT 01 2014

NOTE: "FAIR: INDICATES FEW OR NO CLOUDS BELOW 12,000 FEET WITH NO
SIGNIFICANT WEATHER AND/OR OBSTRUCTIONS TO VISIBILITY.

MSZ001>002-007>008-010>013-018>021-025>028-034>036-012100-
NORTHWEST MISSISSIPPI

CITY           SKY/WX    TMP DP  RH WIND       PRES   REMARKS
CLARKSDALE     FAIR      86  66  51 SE9       29.87F
CLEVELAND      FAIR      91  64  40 S15G21    29.85F HX  92
GREENWOOD      SUNNY     88  65  46 S7G17     29.88F HX  90
GREENVILLE     MOSUNNY   92  61  35 S10       29.84F HX  92
GRENADA        FAIR      90  61  37 SE8       29.89F
OXFORD         FAIR      84  63  48 SE7       29.92F
TUNICA         PTCLDY    86  64  48 S8        29.88F
$$

MSZ003>006-009-014>017-022>024-029>033-037>039-012100-
NORTHEAST MISSISSIPPI

CITY           SKY/WX    TMP DP  RH WIND       PRES   REMARKS
COLUMBUS AFB   SUNNY     87  58  37 VRB2      29.92F
CORINTH        FAIR      88  57  35 S9        29.92S
GOLDN TRIANGLE MOSUNNY   88  61  40 SE9       29.91F
STARKVILLE     MOCLDY    88  59  37 S7        29.91S
TUPELO         SUNNY     88  58  36 SE8       29.91F
$$

MSZ040-058-012100-
CENTRAL MISSISSIPPI

CITY           SKY/WX    TMP DP  RH WIND       PRES   REMARKS
JACKSON INTL   PTSUNNY   89  64  43 S9        29.89F HX  90
JACKSON HAWKNS SUNNY     88  65  46 MISG      29.89F HX  90
MERIDIAN KEY   MOSUNNY   86  60  41 S6        29.91F
MERIDIAN NAS   NOT AVBL
RAYMOND        FAIR      88  82  84 SE7       29.89F HX 108
VICKSBURG      MOSUNNY   89  67  47 S13       29.87F HX  92
$$

MSZ059>079-012100-
SOUTH MISSISSIPPI

CITY           SKY/WX    TMP DP  RH WIND       PRES   REMARKS
BROOKHAVEN     FAIR      84  70  61 CALM      29.91F
COLUMBIA       FAIR      86  70  58 S7        29.89S HX  90
HATTIESBURG    PTSUNNY   87  66  49 SE8       29.91F
MCCOMB         MOSUNNY   85  70  60 S9        29.90F
NATCHEZ        MOSUNNY   86  73  66 SE10      29.88F HX  93
PINE BELT      PTSUNNY   84  64  51 E7        29.93S
$$

MSZ080>082-012100-
COASTAL MISSISSIPPI

CITY           SKY/WX    TMP DP  RH WIND       PRES   REMARKS
BAY ST LOUIS   PTSUNNY   81  72  74 SE8       29.92S
BILOXI         CLOUDY    81  73  77 S8        29.93R
PASCAGOULA     CLOUDY    82  71  69 S8        29.93S
GULFPORT       CLOUDY    79  72  79 SE13      29.92R
$$



USA.gov is the U.S. government's official web portal to all federal, state and local government web resources and services.